Location: Izdebno
(52.6670°N, 16.2170°E)
Time: 03:36:24
(UTC+02:00)

SR - Pass Details

Date: 24 February 2024
Orbit: 577 x 862 km, 66.7° (Epoch: 22 April)

Event Time Altitude Azimuth Distance (km) Brightness Sun altitude
Rises 15:10:48 0° 196° (SSW) 3,437 ? 16.7°
Reaches altitude 10° 15:13:22 10° 191° (S) 2,501 ? 16.4°
Maximum altitude 15:18:55 47° 119° (ESE) 1,114 ? 15.8°
Drops below altitude 10° 15:24:18 10° 47° (NE) 2,425 ? 15.1°
Sets 15:26:45 0° 42° (NE) 3,324 ? 14.9°
